DW8618 Nerja ES current weather conditions

sailwx.info

Wind from 005 at 7 knots gusting 21

Air temperature 18.3° C
Dewpoint 8.9° C

Last reported at 2015-Mar-27 05:45 UTC.
Time now 2015-Mar-27 07:00 UTC

Location: N 36°46' W 003°52'.
View on Google Maps.

See reports from other nearby stations

  
Tides and Currents Weather Stations Pressure Air Temp Water Temp Dewpoint Dewpoint Depression Visibility Wind Speed Wind Dir Waves Ship Positions
date/time (UTC)wind fromknots sea level pressurealtimeterstation pressurevisibilityair tempwater tempwave heightnotes
2015-Mar-27 05:45 005 7 gusting 21 18.3
2015-Mar-27 05:30 360 15 gusting 26 18.3
2015-Mar-27 05:15 331 6 gusting 17 17.8
2015-Mar-27 05:01 311 6 gusting 17 17.8
2015-Mar-27 04:45 047 6 gusting 13 17.2
2015-Mar-27 04:30 022 16.7
2015-Mar-27 04:15 033 17.2
2015-Mar-27 04:01 027 17.8
2015-Mar-27 03:45 037 17.8
2015-Mar-27 03:30 037 17.8
2015-Mar-27 03:15 360 6 gusting 14 17.8
2015-Mar-27 03:01 327 12 gusting 25 17.8
2015-Mar-27 02:45 333 13 gusting 26 17.8
2015-Mar-27 02:30 005 8 gusting 21 17.8
2015-Mar-27 02:16 344 10 gusting 22 17.2
2015-Mar-27 02:01 009 15 gusting 26 17.2
2015-Mar-27 01:46 303 15 gusting 25 17.2
2015-Mar-27 01:30 318 14 gusting 28 17.2
2015-Mar-27 01:15 005 17 gusting 31 17.8
2015-Mar-27 01:01 355 14 gusting 27 17.8
2015-Mar-27 00:45 346 17 gusting 26 17.8
2015-Mar-27 00:31 013 15 gusting 28 17.8
2015-Mar-27 00:15 027 18 gusting 27 17.8
2015-Mar-27 00:01 005 14 gusting 24 17.8
2015-Mar-26 23:45 023 15 gusting 25 17.8
2015-Mar-26 23:31 355 15 gusting 26 17.2
2015-Mar-26 23:15 009 15 gusting 27 17.2
2015-Mar-26 22:46 337 17 gusting 30 17.2
2015-Mar-26 22:30 315 19 gusting 33 17.2
2015-Mar-26 22:15 011 18 gusting 33 17.2
2015-Mar-26 22:01 360 19 gusting 28 17.2
2015-Mar-26 21:45 327 15 gusting 26 17.2
2015-Mar-26 21:30 013 11 gusting 19 17.2
2015-Mar-26 21:16 331 11 gusting 17 17.2
2015-Mar-26 21:01 336 6 gusting 14 16.7
2015-Mar-26 20:46 341 4 gusting 11 17.2
2015-Mar-26 20:30 341 4 gusting 12 17.2
2015-Mar-26 20:15 313 7 gusting 16 17.2
2015-Mar-26 20:01 330 6 gusting 16 17.2
2015-Mar-26 19:45 328 6 gusting 13 17.2
2015-Mar-26 19:30 314 7 gusting 10 17.8
2015-Mar-26 19:15 292 5 gusting 10 17.8
2015-Mar-26 19:01 337 5 gusting 11 18.3
2015-Mar-26 18:45 315 4 gusting 10 18.3
2015-Mar-26 18:30 294 3 gusting 10 18.9
2015-Mar-26 18:15 315 1 gusting 6 19.4
2015-Mar-26 18:01 348 6 gusting 18 19.4
2015-Mar-26 17:45 262 5 gusting 13 19.4
2015-Mar-26 17:30 273 4 gusting 15 20.0
2015-Mar-26 17:15 303 6 gusting 18 20.0
2015-Mar-26 17:01 313 4 gusting 14 20.6
2015-Mar-26 16:45 301 1 gusting 22 20.6
2015-Mar-26 16:30 315 3 gusting 18 20.6
2015-Mar-26 16:15 272 6 gusting 19 21.1
2015-Mar-26 16:01 262 6 gusting 15 21.1
2015-Mar-26 15:45 263 6 gusting 14 21.1
2015-Mar-26 15:30 279 3 gusting 21 20.6
2015-Mar-26 15:15 283 6 gusting 21 20.6
2015-Mar-26 15:01 277 6 gusting 12 20.0
2015-Mar-26 14:45 313 5 gusting 15 20.0
2015-Mar-26 14:30 256 10 gusting 16 19.4
2015-Mar-26 14:15 315 7 gusting 16 19.4
2015-Mar-26 14:01 283 5 gusting 13 20.0
2015-Mar-26 13:45 323 20.0
2015-Mar-26 13:30 346 2 gusting 18 19.4
2015-Mar-26 13:15 271 18.9
2015-Mar-26 13:01 327 7 gusting 13 18.3
2015-Mar-26 12:45 300 6 gusting 17 18.3
2015-Mar-26 12:30 355 7 gusting 17 18.3
2015-Mar-26 12:15 325 7 gusting 16 18.3
2015-Mar-26 12:01 311 6 gusting 18 18.3
2015-Mar-26 11:45 281 6 gusting 11 18.9
2015-Mar-26 11:30 270 6 gusting 14 18.9
2015-Mar-26 11:16 017 17.2
2015-Mar-26 11:01 330 0 gusting 13 16.7
2015-Mar-26 10:46 355 5 gusting 19 16.7
2015-Mar-26 10:30 306 4 gusting 17 16.7
2015-Mar-26 10:15 285 1 gusting 15 16.7
2015-Mar-26 10:01 327 3 gusting 6 16.7
2015-Mar-26 09:45 294 4 gusting 7 16.7
2015-Mar-26 09:30 265 16.7
2015-Mar-26 09:15 308 0 gusting 10 16.7
2015-Mar-26 09:01 286 15.6
2015-Mar-26 08:45 028 15.6
2015-Mar-26 08:30 296 1 gusting 9 14.4
2015-Mar-26 08:15 345 0 gusting 4 13.9
2015-Mar-26 08:01 281 0 gusting 6 13.3
2015-Mar-26 07:45 298 0 gusting 4 12.8
2015-Mar-26 07:30 308 11.7
2015-Mar-26 07:15 327 11.1
2015-Mar-26 07:01 327 11.1
2015-Mar-26 06:45 331 11.1
2015-Mar-26 06:30 005 0 gusting 7 11.1
2015-Mar-26 06:15 346 11.7
2015-Mar-26 06:01 031 2 gusting 14 11.7
2015-Mar-26 05:45 332 6 gusting 10 11.1
2015-Mar-26 05:30 301 5 gusting 8 11.1
2015-Mar-26 05:15 285 0 gusting 8 11.1
2015-Mar-26 05:01 274 2 gusting 11 11.7
2015-Mar-26 04:45 279 1 gusting 10 11.1
2015-Mar-26 04:31 265 4 gusting 10 11.1
2015-Mar-26 04:15 317 1 gusting 7 11.7
2015-Mar-26 04:01 310 1 gusting 12 11.7
2015-Mar-26 03:45 310 7 gusting 11 11.7
2015-Mar-26 03:30 324 6 gusting 15 12.2
2015-Mar-26 03:15 011 10 gusting 17 11.7
2015-Mar-26 03:01 291 11.1
2015-Mar-26 02:45 304 11.7
2015-Mar-26 02:31 328 1 gusting 8 12.2
2015-Mar-26 02:15 344 4 gusting 13 12.2
2015-Mar-26 02:01 345 6 gusting 14 12.2
2015-Mar-26 01:46 013 2 gusting 10 12.2
2015-Mar-26 01:30 291 6 gusting 16 12.2
2015-Mar-26 01:15 300 7 gusting 15 11.7
2015-Mar-26 01:01 005 13 gusting 20 12.2
2015-Mar-26 00:45 036 8 gusting 25 12.2
2015-Mar-26 00:30 331 9 gusting 13 12.2
2015-Mar-26 00:15 019 5 gusting 19 12.8
2015-Mar-26 00:01 063 12 gusting 24 12.8
2015-Mar-25 23:45 024 9 gusting 32 12.8
2015-Mar-25 23:30 033 13 gusting 34 12.8
2015-Mar-25 23:16 016 13 gusting 39 12.8
2015-Mar-25 22:45 355 10 gusting 30 12.8
2015-Mar-25 22:30 005 15 gusting 29 12.2
2015-Mar-25 22:15 344 15 gusting 37 12.2
2015-Mar-25 22:01 355 23 gusting 37 12.2
2015-Mar-25 21:45 344 19 gusting 43 12.2
2015-Mar-25 21:30 281 26 gusting 39 12.2
2015-Mar-25 21:15 355 13 gusting 33 11.7
2015-Mar-25 21:01 348 11 gusting 25 12.2
2015-Mar-25 20:45 026 6 gusting 23 12.8
2015-Mar-25 20:31 355 3 gusting 31 12.2
2015-Mar-25 20:15 290 7 gusting 36 12.2
2015-Mar-25 20:01 203 2 gusting 19 12.2
2015-Mar-25 19:45 355 3 gusting 19 12.2
2015-Mar-25 19:30 288 6 gusting 30 12.2
2015-Mar-25 19:15 032 14 gusting 42 12.2
2015-Mar-25 19:01 122 6 gusting 25 12.2
2015-Mar-25 18:45 343 10 gusting 19 12.2
2015-Mar-25 18:30 304 12 gusting 32 12.2
2015-Mar-25 18:16 096 12.2
2015-Mar-25 18:01 282 4 gusting 19 12.2
2015-Mar-25 17:45 115 0 gusting 24 13.3
2015-Mar-25 17:30 335 8 gusting 22 13.3
2015-Mar-25 17:15 319 12 gusting 33 12.8
2015-Mar-25 17:01 306 10 gusting 19 12.2
2015-Mar-25 16:45 327 8 gusting 16 12.2
2015-Mar-25 16:30 065 2 gusting 22 13.9
2015-Mar-25 16:15 350 8 gusting 19 13.9
2015-Mar-25 16:01 020 3 gusting 21 15.0
2015-Mar-25 15:45 323 10 gusting 18 15.0
2015-Mar-25 15:31 042 3 gusting 23 15.6
2015-Mar-25 15:15 019 6 gusting 19 16.7
2015-Mar-25 15:01 318 2 gusting 12 15.6
2015-Mar-25 14:46 295 1 gusting 11 16.1
2015-Mar-25 14:30 333 1 gusting 17 16.1
2015-Mar-25 14:15 027 3 gusting 16 16.7
2015-Mar-25 14:01 011 9 gusting 19 16.7
2015-Mar-25 13:45 323 0 gusting 11 16.7
2015-Mar-25 13:30 193 4 gusting 22 16.7
2015-Mar-25 13:16 338 3 gusting 14 17.2
2015-Mar-25 13:01 286 1 gusting 12 16.7
2015-Mar-25 12:46 305 16 gusting 27 16.1
2015-Mar-25 12:30 005 13 gusting 26 16.1
2015-Mar-25 12:15 009 11 gusting 25 16.1
2015-Mar-25 12:01 329 8 gusting 25 16.7
2015-Mar-25 11:45 036 10 gusting 23 15.6
2015-Mar-25 11:30 033 10 gusting 22 15.6
2015-Mar-25 11:15 011 10 gusting 25 15.6
2015-Mar-25 11:01 052 13 gusting 22 16.1
2015-Mar-25 10:45 028 6 gusting 26 15.6
2015-Mar-25 10:30 032 9 gusting 19 16.1
2015-Mar-25 10:16 029 4 gusting 11 16.1
2015-Mar-25 10:01 032 4 gusting 19 16.7
2015-Mar-25 09:45 051 4 gusting 18 16.1
2015-Mar-25 09:30 025 6 gusting 28 15.6
2015-Mar-25 09:15 329 10 gusting 32 15.6
2015-Mar-25 09:01 313 4 gusting 19 16.1
2015-Mar-25 08:46 336 10 gusting 20 15.6
2015-Mar-25 08:30 040 4 gusting 23 15.0
2015-Mar-25 08:15 336 12 gusting 24 15.0
2015-Mar-25 08:01 350 6 gusting 19 14.4
2015-Mar-25 07:45 324 6 gusting 15 14.4
2015-Mar-25 07:30 302 8 gusting 18 13.3
2015-Mar-25 07:16 319 11 gusting 29 13.3
2015-Mar-25 07:01 341 8 gusting 18 13.9